Location: Middle Street
(51.7167°N, 0.0333°E)
Time: 16:56:02
(UTC+00:00)

Cosmos 1680 Rocket - Visible Passes

Search period start: 14 May 2021 00:00
Search period end: 24 May 2021 00:00
Orbit: 759 x 782 km, 74.1° (Epoch: 13 May)

Date Brightness Start Highest point End Pass type
(mag) Time Alt. Az. Time Alt. Az. Time Alt. Az.
14 May 4.6 20:17:49 10° NNW 20:22:38 33° NE 20:27:25 10° ESE visible
14 May 4.1 21:59:50 10° NNW 22:04:59 50° WSW 22:08:30 20° S visible
15 May 3.6 21:23:23 10° NNW 21:28:43 77° WSW 21:32:59 16° SSE visible
15 May 5.8 23:07:28 10° WNW 23:09:55 13° W 23:12:21 10° WSW visible
16 May 3.6 20:47:01 10° NNW 20:52:22 72° ENE 20:57:31 11° SSE visible
16 May 5.4 22:30:03 10° NW 22:33:56 21° W 22:37:49 10° SW visible
17 May 4.9 21:53:12 10° NW 21:57:53 32° WSW 22:02:23 11° SSW visible
18 May 4.3 21:16:35 10° NNW 21:21:43 49° WSW 21:26:49 10° S visible
19 May 3.7 20:40:08 10° NNW 20:45:29 75° WSW 20:50:47 10° SSE visible
19 May 5.9 22:24:20 10° WNW 22:26:39 13° W 22:28:57 10° WSW visible
20 May 5.6 21:46:51 10° NW 21:50:41 20° W 21:54:29 10° SW visible
21 May 5.1 21:09:58 10° NW 21:14:37 31° WSW 21:19:14 10° SSW visible
22 May 4.4 20:33:22 10° NW 20:38:28 48° WSW 20:43:32 10° S visible
23 May 6.1 21:41:13 10° WNW 21:43:22 12° W 21:45:31 10° WSW visible
